Home   Weather   Gary   Past weeks

Flag for USA Past Weather in Gary, Indiana, USA — Yesterday and Last 2 Weeks

Now
18 °F

Overcast.


Feels Like: 4 °F
Forecast: 19 / 26 °F
Wind: 16 mph from West

Location: Lansing Municipal Airport

Current Time: Dec 8, 2016 at 8:28:21 am

Latest Report: Dec 8, 2016 at 7:55 am


Visibility: 10 mi

Pressure: 30.24 "Hg

Humidity: 79%

Dew Point: 13 °F

Location of GaryLocation

Past Weather in Gary — Graph

°F

Gary Temperature Yesterday

Maximum temperature yesterday: 30 °F (at 1:15 pm)
Minimum temperature yesterday: 23 °F (at 9:35 pm)
Average temperature yesterday: 27 °F

High & Low Weather Summary for the Past Weeks

 TemperatureHumidityPressure
High56 °F (Nov 29, 12:35 pm)100% (Nov 23, 7:15 am)30.37 "Hg (Nov 23, 7:15 am)
Low19 °F (Dec 8, 7:15 am)67% (Nov 29, 2:35 pm)29.17 "Hg (Nov 28, 8:15 pm)
Average37 °F90%29.98 "Hg
* Reported Nov 23 7:15 am — Dec 8 7:15 am, Gary, Weather by CustomWeather, © 2016

Note: Actual official high and low records may vary slightly from our data, if they occured in-between our weather recording intervals... More about our weather records

Advertising

Gary Weather History for the Previous 24 Hours

Scroll right to see more
 ConditionsComfort  
Time TempWeatherWind HumidityBarometerVisibility
7:15 am
Thu, Dec 8
19 °FOvercast.17 mph79%30.23 "Hg10 mi
6:55 am20 °FOvercast.25 mph77%30.22 "Hg10 mi
6:15 am21 °FLight snow. Overcast.24 mph80%30.21 "Hg10 mi
5:55 am21 °FLight snow. Overcast.15 mph81%30.20 "Hg10 mi
5:35 am21 °FLight snow. Overcast.13 mph80%30.20 "Hg10 mi
5:15 am22 °FOvercast.17 mph78%30.20 "Hg10 mi
4:55 am22 °FOvercast.18 mph77%30.19 "Hg10 mi
4:35 am22 °FOvercast.15 mph77%30.19 "Hg10 mi
4:15 am22 °FLight snow. Overcast.15 mph79%30.19 "Hg10 mi
3:55 am22 °FOvercast.17 mph78%30.18 "Hg10 mi
3:35 am22 °FOvercast.17 mph77%30.18 "Hg10 mi
3:15 am23 °FOvercast.22 mph77%30.18 "Hg10 mi
2:55 am23 °FOvercast.17 mph77%30.18 "Hg2 mi
2:35 am23 °FOvercast.24 mph77%30.18 "Hg10 mi
2:15 am24 °FOvercast.18 mph77%30.18 "Hg10 mi
1:55 am24 °FOvercast.20 mph76%30.18 "Hg10 mi
1:35 am24 °FOvercast.18 mph75%30.17 "Hg10 mi
1:15 am24 °FOvercast.13 mph75%30.17 "Hg10 mi
12:55 am24 °FOvercast.14 mph76%30.17 "Hg10 mi
12:35 am24 °FOvercast.20 mph76%30.17 "Hg10 mi
12:15 am24 °FOvercast.15 mph76%30.17 "Hg10 mi
11:55 pm
Wed, Dec 7
24 °FOvercast.14 mph78%30.17 "Hg10 mi
11:35 pm24 °FOvercast.12 mph75%30.17 "Hg10 mi
11:15 pm24 °FOvercast.16 mph77%30.17 "Hg10 mi
10:55 pm24 °FOvercast.18 mph75%30.18 "Hg10 mi
10:35 pm24 °FOvercast.18 mph77%30.17 "Hg10 mi
10:15 pm23 °FOvercast.21 mph75%30.16 "Hg10 mi
9:55 pm23 °FOvercast.21 mph77%30.17 "Hg10 mi
9:35 pm23 °FOvercast.20 mph80%30.17 "Hg10 mi
9:15 pm24 °FOvercast.17 mph80%30.16 "Hg10 mi
8:55 pm24 °FPassing clouds.14 mph80%30.16 "Hg10 mi
8:35 pm24 °FPassing clouds.24 mph77%30.16 "Hg10 mi
8:15 pm25 °FPassing clouds.22 mph79%30.15 "Hg10 mi
7:35 pm26 °FPassing clouds.18 mph80%30.16 "Hg10 mi
7:15 pm26 °FPassing clouds.20 mph80%30.15 "Hg10 mi
6:55 pm26 °FClear.18 mph82%30.15 "Hg10 mi
6:35 pm26 °FClear.14 mph84%30.15 "Hg10 mi
6:15 pm26 °FClear.12 mph84%30.15 "Hg10 mi
5:55 pm27 °FClear.13 mph82%30.14 "Hg10 mi
5:15 pm27 °FClear.13 mph81%30.14 "Hg10 mi
4:55 pm27 °FClear.12 mph78%30.13 "Hg10 mi
4:35 pm28 °FPassing clouds.14 mph78%30.13 "Hg10 mi
4:15 pm28 °FPassing clouds.17 mph78%30.13 "Hg10 mi
3:55 pm28 °FPassing clouds.15 mph80%30.12 "Hg10 mi
3:35 pm29 °FPassing clouds.13 mph77%30.12 "Hg10 mi
3:15 pm29 °FScattered clouds.17 mph74%30.12 "Hg10 mi
2:55 pm29 °FScattered clouds.10 mph80%30.11 "Hg10 mi
2:35 pm29 °FScattered clouds.16 mph77%30.11 "Hg10 mi
2:15 pm28 °FScattered clouds.15 mph80%30.11 "Hg10 mi
1:55 pm29 °FSunny.15 mph77%30.10 "Hg10 mi
1:35 pm29 °FScattered clouds.14 mph78%30.09 "Hg10 mi
1:15 pm30 °FOvercast.15 mph76%30.10 "Hg10 mi
12:55 pm28 °FOvercast.13 mph79%30.10 "Hg10 mi
12:35 pm28 °FOvercast.14 mph79%30.10 "Hg10 mi
12:15 pm28 °FOvercast.14 mph79%30.11 "Hg10 mi
11:55 am28 °FOvercast.12 mph79%30.10 "Hg10 mi
11:35 am27 °FPartly sunny.10 mph78%30.11 "Hg10 mi
11:15 am28 °FScattered clouds.8 mph77%30.11 "Hg10 mi
10:55 am28 °FSunny.13 mph76%30.12 "Hg10 mi
10:15 am28 °FSunny.12 mph74%30.14 "Hg10 mi
9:55 am28 °FSunny.9 mph75%30.13 "Hg10 mi
9:35 am28 °FSunny.13 mph75%30.13 "Hg10 mi
9:15 am27 °FSunny.13 mph77%30.11 "Hg10 mi
8:15 am27 °FSunny.13 mph79%30.08 "Hg10 mi
Weather by CustomWeather, © 2016

See weather overviewHow to use our weather pages